RYR2DH EPMO-LHBP

Flight info

Callsign RYR2DH
Flight time N/A
Altitude 36000
Route EVINA M66 BABKO DCT EDEMU
Aircraft B738/M-SDE2E3FGHIRWXY/LB1

Departure

Time 2026-04-14 14:50
Airport Warsaw Modlin Airport (EPMO)

Arrival

Time N/A
Airport Budapest Liszt Ferenc International Airport (LHBP)
Time Latitude Longitude Altitude Speed Heading
2026-04-14 14:18 52.44758 20.65417 337 ft 0 kts 207°
2026-04-14 14:42 52.44773 20.65430 333 ft 4 kts 208°
2026-04-14 14:43 52.44796 20.65453 333 ft 4 kts 220°
2026-04-14 14:43 52.44812 20.65484 332 ft 3 kts 257°
2026-04-14 14:43 52.44813 20.65491 332 ft 0 kts 261°
2026-04-14 14:45 52.44813 20.65487 332 ft 2 kts 261°
2026-04-14 14:46 52.44805 20.65404 334 ft 13 kts 261°
2026-04-14 14:46 52.44786 20.65202 337 ft 22 kts 261°
2026-04-14 14:46 52.44762 20.64942 335 ft 23 kts 261°
2026-04-14 14:46 52.44737 20.64688 337 ft 22 kts 261°
2026-04-14 14:47 52.44713 20.64441 337 ft 22 kts 261°
2026-04-14 14:47 52.44691 20.64201 333 ft 21 kts 261°
2026-04-14 14:47 52.44669 20.63967 336 ft 20 kts 261°
2026-04-14 14:47 52.44648 20.63741 336 ft 20 kts 261°
2026-04-14 14:48 52.44629 20.63542 337 ft 15 kts 262°
2026-04-14 14:48 52.44693 20.63441 332 ft 14 kts 350°
2026-04-14 14:48 52.44790 20.63417 333 ft 14 kts 351°
2026-04-14 14:48 52.44883 20.63395 333 ft 13 kts 353°
2026-04-14 14:49 52.44955 20.63427 334 ft 5 kts 71°
2026-04-14 14:49 52.44957 20.63440 335 ft 7 kts 77°
2026-04-14 14:49 52.45004 20.63930 338 ft 81 kts 81°
2026-04-14 14:49 52.45123 20.65210 347 ft 143 kts 81°
2026-04-14 14:50 52.45281 20.66926 893 ft 157 kts 83°
2026-04-14 14:50 52.45451 20.68729 1711 ft 163 kts 84°
2026-04-14 14:50 52.45652 20.70717 2134 ft 191 kts 84°
2026-04-14 14:50 52.45891 20.73019 2398 ft 216 kts 83°
2026-04-14 14:51 52.46159 20.75546 2760 ft 237 kts 82°
2026-04-14 14:51 52.46817 20.78118 3361 ft 257 kts 57°
2026-04-14 14:51 52.48228 20.80007 4263 ft 272 kts 25°
2026-04-14 14:51 52.50109 20.80576 5248 ft 280 kts 358°
2026-04-14 14:52 52.52047 20.80198 6230 ft 281 kts 350°
2026-04-14 14:52 52.53985 20.79655 7105 ft 284 kts 349°
2026-04-14 14:52 52.55934 20.79123 8008 ft 283 kts 348°
2026-04-14 14:52 52.57871 20.78620 9020 ft 280 kts 348°
2026-04-14 14:53 52.59801 20.78269 9983 ft 282 kts
2026-04-14 14:53 52.61709 20.79164 10723 ft 293 kts 27°
2026-04-14 14:53 52.63240 20.81494 11178 ft 316 kts 56°
2026-04-14 14:53 52.63964 20.84941 11600 ft 331 kts 80°
2026-04-14 14:54 52.64228 20.88745 12264 ft 338 kts 90°
2026-04-14 14:54 52.63704 20.92516 12932 ft 342 kts 116°
2026-04-14 14:54 52.62327 20.95775 13302 ft 355 kts 139°
2026-04-14 14:54 52.60417 20.98434 13834 ft 364 kts 143°
2026-04-14 14:55 52.58421 21.01046 14458 ft 369 kts 144°
2026-04-14 14:55 52.56400 21.03678 15156 ft 372 kts 143°
2026-04-14 14:55 52.54369 21.06348 15863 ft 376 kts 143°
2026-04-14 14:55 52.52324 21.09063 16545 ft 380 kts 143°
2026-04-14 14:56 52.48100 21.14417 17850 ft 387 kts 156°
2026-04-14 14:56 52.45536 21.15580 18491 ft 383 kts 181°
2026-04-14 14:56 52.42912 21.15141 19100 ft 379 kts 198°
2026-04-14 14:57 52.40474 21.13569 19694 ft 377 kts 208°
2026-04-14 14:57 52.38094 21.11701 20269 ft 381 kts 210°
2026-04-14 14:57 52.35702 21.09780 20876 ft 384 kts 210°
2026-04-14 14:57 52.33293 21.07848 21502 ft 387 kts 210°
2026-04-14 14:58 52.30864 21.05918 22129 ft 390 kts 209°
2026-04-14 14:58 52.28412 21.03987 22740 ft 393 kts 209°
2026-04-14 14:58 52.25938 21.02055 23398 ft 396 kts 209°
2026-04-14 14:58 52.23433 21.00108 23939 ft 401 kts 209°
2026-04-14 14:59 52.20899 20.98145 24409 ft 405 kts 208°
2026-04-14 14:59 52.18347 20.96175 24903 ft 406 kts 208°
2026-04-14 14:59 52.15786 20.94202 25379 ft 409 kts 208°
2026-04-14 14:59 52.13206 20.92217 25832 ft 411 kts 208°
2026-04-14 15:00 52.10615 20.90227 26273 ft 414 kts 208°
2026-04-14 15:00 52.08006 20.88224 26724 ft 416 kts 208°
2026-04-14 15:00 52.05381 20.86212 27154 ft 418 kts 207°
2026-04-14 15:00 52.02740 20.84190 27582 ft 420 kts 207°
2026-04-14 15:01 52.00091 20.82164 27989 ft 423 kts 207°
2026-04-14 15:01 51.97423 20.80125 28396 ft 425 kts 207°
2026-04-14 15:01 51.94735 20.78074 28779 ft 428 kts 207°
2026-04-14 15:01 51.92037 20.76019 29159 ft 430 kts 207°
2026-04-14 15:02 51.89325 20.73955 29548 ft 432 kts 207°
2026-04-14 15:02 51.86596 20.71882 29916 ft 434 kts 207°
2026-04-14 15:02 51.83862 20.69808 30364 ft 434 kts 207°
2026-04-14 15:02 51.81139 20.67744 30852 ft 430 kts 207°
2026-04-14 15:03 51.78439 20.65702 31369 ft 427 kts 207°
2026-04-14 15:03 51.75756 20.63675 31823 ft 425 kts 207°
2026-04-14 15:03 51.73984 20.62337 32097 ft 424 kts 207°
2026-04-14 15:03 51.71310 20.60320 32496 ft 423 kts 207°
2026-04-14 15:04 51.68657 20.58321 32958 ft 421 kts 207°
2026-04-14 15:04 51.66002 20.56324 33415 ft 419 kts 207°
2026-04-14 15:04 51.63367 20.54344 33825 ft 417 kts 207°
2026-04-14 15:04 51.60745 20.52376 34214 ft 416 kts 207°
2026-04-14 15:05 51.58084 20.50382 34542 ft 415 kts 207°
2026-04-14 15:05 51.55498 20.48446 34779 ft 417 kts 207°
2026-04-14 15:05 51.52869 20.46479 35007 ft 418 kts 207°
2026-04-14 15:05 51.50232 20.44510 35283 ft 418 kts 206°
2026-04-14 15:06 51.47596 20.42544 35537 ft 418 kts 206°
2026-04-14 15:06 51.44956 20.40576 35795 ft 419 kts 206°
2026-04-14 15:06 51.42312 20.38609 36051 ft 419 kts 206°
2026-04-14 15:06 51.39662 20.36642 36152 ft 423 kts 206°
2026-04-14 15:07 51.34082 20.33441 36156 ft 428 kts 199°
2026-04-14 15:07 51.28358 20.30531 36169 ft 435 kts 199°
2026-04-14 15:08 51.22577 20.27573 36156 ft 437 kts 199°
2026-04-14 15:08 51.16787 20.24587 36160 ft 438 kts 199°
2026-04-14 15:09 51.10994 20.21599 36154 ft 437 kts 199°
2026-04-14 15:09 51.05210 20.18623 36166 ft 437 kts 199°
2026-04-14 15:10 50.99430 20.15657 36162 ft 436 kts 199°
2026-04-14 15:10 50.93658 20.12704 36146 ft 435 kts 199°
2026-04-14 15:11 50.87841 20.09748 36150 ft 433 kts 199°
2026-04-14 15:11 50.82170 20.06892 36150 ft 431 kts 199°
2026-04-14 15:12 50.76463 20.04010 36156 ft 430 kts 199°
2026-04-14 15:12 50.70778 20.01123 36152 ft 429 kts 199°
2026-04-14 15:13 50.65100 19.98245 36152 ft 428 kts 199°
2026-04-14 15:13 50.59427 19.95379 36148 ft 428 kts 199°
2026-04-14 15:14 50.53749 19.92520 36147 ft 429 kts 199°
2026-04-14 15:14 50.48057 19.89660 36150 ft 429 kts 199°
2026-04-14 15:15 50.42356 19.86804 36148 ft 430 kts 199°
2026-04-14 15:15 50.36646 19.83949 36143 ft 431 kts 199°
2026-04-14 15:16 50.30920 19.81095 36138 ft 432 kts 199°
2026-04-14 15:16 50.25187 19.78244 36137 ft 433 kts 199°
2026-04-14 15:17 50.19443 19.75395 36129 ft 433 kts 199°
2026-04-14 15:17 50.13697 19.72552 36130 ft 433 kts 199°
2026-04-14 15:18 50.07952 19.69716 36129 ft 433 kts 199°
2026-04-14 15:18 50.02206 19.66888 36134 ft 433 kts 199°
2026-04-14 15:19 49.96461 19.64066 36123 ft 433 kts 199°
2026-04-14 15:19 49.90675 19.61232 36129 ft 433 kts 199°
2026-04-14 15:20 49.84969 19.58444 36126 ft 433 kts 199°
2026-04-14 15:20 49.79190 19.55627 36128 ft 433 kts 199°
2026-04-14 15:21 49.73447 19.52834 36131 ft 432 kts 199°
2026-04-14 15:21 49.67705 19.50048 36130 ft 433 kts 199°
2026-04-14 15:22 49.61913 19.47762 36120 ft 435 kts 187°
2026-04-14 15:22 49.55865 19.48015 36130 ft 438 kts 173°
2026-04-14 15:23 49.52804 19.48766 35901 ft 443 kts 172°
2026-04-14 15:23 49.49766 19.49549 35647 ft 441 kts 172°
2026-04-14 15:23 49.46754 19.50325 35400 ft 438 kts 172°
2026-04-14 15:23 49.43757 19.51085 35191 ft 436 kts 172°
2026-04-14 15:24 49.37768 19.52560 35133 ft 437 kts 172°
2026-04-14 15:24 49.31779 19.54003 35124 ft 440 kts 173°
2026-04-14 15:25 49.25697 19.55457 35118 ft 440 kts 173°
2026-04-14 15:25 49.19656 19.56899 35132 ft 439 kts 173°
2026-04-14 15:26 49.13605 19.58340 35120 ft 440 kts 173°
2026-04-14 15:26 49.07604 19.59766 35133 ft 440 kts 172°
2026-04-14 15:27 49.01557 19.61200 35139 ft 440 kts 172°
2026-04-14 15:27 48.98528 19.61917 34953 ft 443 kts 172°
2026-04-14 15:27 48.95462 19.62641 34397 ft 446 kts 172°
2026-04-14 15:28 48.92402 19.63364 33696 ft 445 kts 172°
2026-04-14 15:28 48.89346 19.64085 33005 ft 444 kts 172°
2026-04-14 15:28 48.86295 19.64804 32390 ft 442 kts 172°
2026-04-14 15:28 48.83269 19.65516 31911 ft 437 kts 172°
2026-04-14 15:29 48.80275 19.66220 31416 ft 434 kts 172°
2026-04-14 15:29 48.77301 19.66919 30937 ft 431 kts 172°
2026-04-14 15:29 48.74310 19.67620 30445 ft 428 kts 173°
2026-04-14 15:29 48.71380 19.68306 29933 ft 425 kts 173°
2026-04-14 15:30 48.68472 19.68986 29423 ft 421 kts 173°
2026-04-14 15:30 48.65592 19.69658 28911 ft 417 kts 173°
2026-04-14 15:30 48.62740 19.70324 28440 ft 413 kts 173°
2026-04-14 15:30 48.59944 19.70975 27973 ft 410 kts 173°
2026-04-14 15:31 48.57133 19.71629 27473 ft 407 kts 173°
2026-04-14 15:31 48.54343 19.72278 26995 ft 405 kts 173°
2026-04-14 15:31 48.51565 19.72923 26521 ft 403 kts 173°
2026-04-14 15:31 48.48801 19.73504 26010 ft 400 kts 178°
2026-04-14 15:32 48.46046 19.73176 25268 ft 395 kts 194°
2026-04-14 15:32 48.43454 19.71878 24472 ft 391 kts 206°
2026-04-14 15:32 48.41088 19.69900 23709 ft 388 kts 212°
2026-04-14 15:32 48.38774 19.67838 22905 ft 385 kts 212°
2026-04-14 15:33 48.36484 19.65807 22185 ft 379 kts 212°
2026-04-14 15:33 48.34219 19.63809 21493 ft 374 kts 211°
2026-04-14 15:33 48.31955 19.61825 20779 ft 370 kts 211°
2026-04-14 15:33 48.29746 19.59896 20101 ft 366 kts 211°
2026-04-14 15:34 48.27557 19.57990 19443 ft 362 kts 211°
2026-04-14 15:34 48.25390 19.56107 18812 ft 358 kts 210°
2026-04-14 15:34 48.23244 19.54246 18124 ft 355 kts 210°
2026-04-14 15:34 48.21140 19.52425 17443 ft 351 kts 210°
2026-04-14 15:35 48.19016 19.50587 16773 ft 347 kts 210°